Simultaneous Nadir Overpasses (SNOs) Predictions

Prediction of SNOs between GOES-15 and METOP-C Satellite Orbit:

Table of predicted SNOs for the next 14.0 days since TLE Epoch: 4/4/2025
Index Date Time (GOES-15) GOES-15 Lat,Lon METOP-C Lat,Lon Distance(km) Time Diff (sec)
1 04/05/2025 05:15:48 -0.12, 61.32 -0.69, 63.96 300.53 80
2 04/06/2025 17:34:47 0.13, 61.28 -0.31, 59.37 218.39 80
3 04/07/2025 17:11:27 0.12, 61.29 0.79, 64.37 350.25 80
4 04/09/2025 05:30:17 -0.13, 61.35 0.24, 59.81 176.44 80
5 04/10/2025 05:12:18 -0.13, 61.36 -0.92, 64.79 392.54 80
6 04/11/2025 17:31:16 0.13, 61.31 -0.12, 60.20 125.87 80
7 04/12/2025 17:07:56 0.13, 61.32 1.00, 65.20 442.65 80
8 04/14/2025 05:26:46 -0.14, 61.39 0.02, 60.64 84.83 80
9 04/15/2025 05:08:45 -0.14, 61.40 -1.10, 65.64 483.48 80
10 04/16/2025 17:27:44 0.15, 61.36 0.08, 61.05 35.71 80
